Retour au catalogue

BRO-11

ActifScienceSSO
NORAD 58264·PAYLOAD·🇫🇷 France

Lancé Nov 11, 2023 depuis Vandenberg Space Force Base

Loading…

Prochains Passages (prochaines 24 heures)

TLE

FraisSource: Space-Track

Époque: Sep 14, 2026, 15:41 UTC

1 58264U 23174J   26257.65386377  .00003001  00000-0  11238-3 0  9991
2 58264  97.3840 333.6867 0008662 247.3059 112.7265 15.28035427158416

Suivez BRO-11 en temps réel avec AllMySat

Download on the App Store